This demonstration page uses our WeatherBlox Daily Observations layout. Learn more.

Hourly Observations for October 9, 2015

Temp ( °F °C ) Dew Point ( °F °C ) Humidity (%) Winds ( mph kmh ) Pressure ( in mb ) Visibility ( mi km ) Precip ( " mm )
12:15 am 00:15 Partly Cloudy 52 11.1 49 9.5 90 90 NNW 7 11 30.27 1025 10 16.0934 0 0
12:35 am 00:35 Clear 51 10.8 49 9.2 90 90 NNW 7 11 30.27 1025 10 16.0934 0 0
12:55 am 00:55 Clear 51 10.6 48 9.1 91 91 NNW 7 11 30.27 1025 10 16.0934 0 0
1:15 am 01:15 Clear 51 10.5 48 9 91 91 NNW 8 13 30.27 1025 10 16.0934 0 0
1:35 am 01:35 Clear 50 10.1 48 8.7 91 91 NNW 6 9 30.27 1025 10 16.0934 0 0
1:55 am 01:55 Clear 49 9.7 47 8.5 92 92 Calm 30.27 1025 10 16.0934 0 0
2:15 am 02:15 Clear 49 9.3 47 8.1 92 92 Calm 30.27 1025 10 16.0934 0 0
2:35 am 02:35 Clear 48 9.1 46 7.9 92 92 W 3 6 30.3 1026 10 16.0934 0 0
2:55 am 02:55 Clear 47 8.6 46 7.7 94 94 WNW 3 6 30.3 1026 10 16.0934 0 0
3:15 am 03:15 Clear 48 8.7 46 7.7 94 94 WNW 3 6 30.3 1026 10 16.0934 0 0
3:35 am 03:35 Clear 47 8.6 46 7.6 94 94 WNW 3 6 30.3 1026 10 16.0934 0 0
3:55 am 03:55 Clear 46 8 45 7 93 93 W 6 9 30.33 1027 10 16.0934 0 0
4:15 am 04:15 Clear 46 8 45 7.2 95 95 W 7 11 30.33 1027 10 16.0934 0 0
4:35 am 04:35 Clear 46 8 45 7.1 94 94 W 3 6 30.33 1027 10 16.0934 0 0
4:55 am 04:55 Clear 45 7.2 44 6.5 95 95 Calm 30.36 1028 10 16.0934 0 0
5:15 am 05:15 Clear 46 7.5 44 6.8 95 95 Calm 30.36 1028 10 16.0934 0 0
5:35 am 05:35 Clear 45 7.1 44 6.5 96 96 NNW 3 6 30.36 1028 10 16.0934 0 0
5:55 am 05:55 Clear 43 6.3 42 5.6 95 95 Calm 30.36 1028 7 11.26538 0 0
6:15 am 06:15 Clear 44 6.5 42 5.8 95 95 NW 3 6 30.36 1028 10 16.0934 0 0
6:35 am 06:35 Clear 44 6.7 43 6.1 96 96 NW 6 9 30.36 1028 10 16.0934 0 0
6:55 am 06:55 Clear 44 6.5 43 5.9 96 96 NW 5 7 30.39 1029 10 16.0934 0 0
7:15 am 07:15 Partly Cloudy with Mist and Fog 42 5.4 41 4.8 96 96 Calm 30.42 1030 5 8.0467 0 0
7:35 am 07:35 Cloudy 44 6.4 42 5.7 95 95 Calm 30.39 1029 10 16.0934 0 0
7:55 am 07:55 Cloudy 44 6.6 43 6.1 97 97 Calm 30.39 1029 10 16.0934 0 0
8:15 am 08:15 Cloudy with Mist and Fog 46 8 45 7.3 95 95 Calm 30.39 1029 5 8.0467 0 0
8:35 am 08:35 Cloudy with Mist and Fog 47 8.2 46 7.6 96 96 Calm 30.42 1030 1 1.60934 0 0
8:55 am 08:55 Cloudy with Mist and Fog 47 8.3 46 7.7 96 96 NNW 3 6 30.42 1030 2 3.21868 0 0
9:15 am 09:15 Cloudy with Mist and Fog 47 8.5 46 8 97 97 N 3 6 30.42 1030 1 1.60934 0 0
9:35 am 09:35 Cloudy with Mist and Fog 47 8.6 47 8.1 97 97 Calm 30.42 1030 3 4.82802 0 0
9:55 am 09:55 Cloudy with Mist and Fog 49 9.3 48 8.8 97 97 Calm 30.42 1030 5 8.0467 0 0
10:15 am 10:15 Partly Cloudy 50 10.2 49 9.7 97 97 Calm 30.39 1029 10 16.0934 0 0
10:35 am 10:35 Sunny 54 12.1 50 10 87 87 Calm 30.39 1029 10 16.0934 0 0
10:55 am 10:55 Sunny 55 12.7 49 9.3 80 80 Calm 30.36 1028 10 16.0934 0 0
11:15 am 11:15 Sunny 56 13.5 49 9.2 75 75 Calm 30.36 1028 10 16.0934 0 0
11:35 am 11:35 Sunny 58 14.4 48 8.9 70 70 Calm 30.36 1028 10 16.0934 0 0
11:55 am 11:55 Sunny 60 15.7 48 8.8 64 64 Calm 30.36 1028 10 16.0934 0 0
12:15 pm 12:15 Sunny 61 16.3 46 7.9 58 58 Calm 30.3 1026 10 16.0934 0 0
12:35 pm 12:35 Sunny 62 16.6 45 7 53 53 Calm 30.3 1026 10 16.0934 0 0
12:55 pm 12:55 Sunny 64 17.7 45 7.2 50 50 Calm 30.3 1026 10 16.0934 0 0
1:15 pm 13:15 Sunny 64 17.9 44 6.6 48 48 SW 5 7 30.27 1025 10 16.0934 0 0
1:35 pm 13:35 Partly Cloudy 65 18.4 44 6.7 47 47 WNW 3 6 30.27 1025 10 16.0934 0 0
1:55 pm 13:55 Partly Cloudy 66 18.8 42 5.7 42 42 Calm 30.24 1024 10 16.0934 0 0
2:15 pm 14:15 Partly Cloudy 68 19.8 42 5.4 39 39 WNW 3 6 30.21 1023 10 16.0934 0 0
2:35 pm 14:35 Partly Cloudy 67 19.4 41 4.9 39 39 Calm 30.21 1023 10 16.0934 0 0
2:55 pm 14:55 Partly Cloudy 69 20.3 40 4.7 36 36 Calm 30.21 1023 10 16.0934 0 0
3:15 pm 15:15 Partly Cloudy 68 20.1 39 4 35 35 WSW 6 9 30.18 1022 10 16.0934 0 0
3:35 pm 15:35 Sunny 69 20.6 40 4.4 35 35 W 5 7 30.18 1022 10 16.0934 0 0
3:55 pm 15:55 Sunny 68 20.1 40 4.2 35 35 WSW 3 6 30.18 1022 10 16.0934 0 0
4:15 pm 16:15 Sunny 70 20.9 39 4.1 33 33 Calm 30.18 1022 10 16.0934 0 0
4:35 pm 16:35 Sunny 68 20.2 38 3.6 34 34 S 3 6 30.18 1022 10 16.0934 0 0
4:55 pm 16:55 Sunny 69 20.5 39 3.9 34 34 W 3 6 30.18 1022 10 16.0934 0 0
5:15 pm 17:15 Sunny 68 20.1 39 3.9 35 35 Calm 30.15 1021 10 16.0934 0 0
5:35 pm 17:35 Sunny 68 20.1 40 4.2 35 35 Calm 30.15 1021 10 16.0934 0 0
5:55 pm 17:55 Sunny 68 20 40 4.2 35 35 Calm 30.15 1021 10 16.0934 0 0
6:15 pm 18:15 Sunny 67 19.3 41 5.1 39 39 Calm 30.15 1021 10 16.0934 0 0
6:35 pm 18:35 Sunny 66 19 42 5.4 41 41 Calm 30.15 1021 10 16.0934 0 0
6:55 pm 18:55 Sunny 64 17.9 42 5.7 45 45 Calm 30.18 1022 10 16.0934 0 0
7:15 pm 19:15 Clear 63 17.3 43 6 48 48 SSW 3 6 30.18 1022 10 16.0934 0 0
7:35 pm 19:35 Clear 62 16.9 43 5.9 49 49 SSW 5 7 30.15 1021 10 16.0934 0 0
7:55 pm 19:55 Clear 60 15.4 44 6.5 56 56 Calm 30.18 1022 10 16.0934 0 0
8:15 pm 20:15 Clear 59 15 43 6.1 56 56 Calm 30.18 1022 10 16.0934 0 0
8:35 pm 20:35 Clear 60 15.4 42 5.8 53 53 SSW 5 7 30.15 1021 10 16.0934 0 0
8:55 pm 20:55 Clear 59 14.9 43 5.9 55 55 SSW 5 7 30.18 1022 10 16.0934 0 0
9:15 pm 21:15 Clear 58 14.6 42 5.6 55 55 Calm 30.18 1022 10 16.0934 0 0
9:35 pm 21:35 Clear 55 12.6 43 6.3 66 66 SSE 3 6 30.21 1023 10 16.0934 0 0
9:55 pm 21:55 Clear 55 12.9 42 5.7 62 62 SSE 5 7 30.21 1023 10 16.0934 0 0
10:15 pm 22:15 Clear 55 13 43 6 63 63 Calm 30.21 1023 10 16.0934 0 0
10:35 pm 22:35 Clear 55 12.5 42 5.6 63 63 SSE 5 7 30.21 1023 10 16.0934 0 0
10:55 pm 22:55 Clear 52 11.2 42 5.4 68 68 SSE 6 9 30.18 1022 10 16.0934 0 0
11:15 pm 23:15 Clear 53 11.5 42 5.5 67 67 SSE 5 7 30.18 1022 10 16.0934 0 0
11:35 pm 23:35 Clear 52 11 41 5.2 68 68 SSE 6 9 30.18 1022 10 16.0934 0 0
11:55 pm 23:55 Clear 50 10.1 41 5.1 71 71 SSE 3 6 30.21 1023 10 16.0934 0 0

Powered by AerisWeather